User: anonymous   Login
Location: Aldenham
(51.6667°N, 0.3500°W)
Time: 21:28:37
(UTC+00:00)
Language:

A-11 Canister half - Orbit

View from above orbital plane
View from above orbital plane
View from above satellite
View from above satellite

Ground track
Ground track

The orbit is defined by the following mean orbital elements,

1 00051U          26048.45081230 +.00000000 +00000-0 -63110-3 0 00007
2 00051  47.2137  59.8602 0110010 201.6886 157.9221 12.18378400    07
Epoch (UTC): 17 February 2026 10:49:10
Eccentricity: 0.0110010
inclination: 47.2137°
perigee height: 1512 km
apogee height: 1687 km
right ascension of ascending node: 59.8602°
argument of perigee: 201.6886°
revolutions per day: 12.18378400
mean anomaly at epoch: 157.9221°

The dashed part of the orbit path shows where the satellite is in the earth's shadow,  

DLR